www.pogodaiklimat.ru

Погода и климат >> Архив погоды >> Китай >> город Пекин >> Пекин


АРХИВ ПОГОДЫ в Пекине

Время (UTC), дата Ветер
(напр.,м/с)
 
Видим.   Явления Облачность Т
(С)
Тd
(С)
f
(%)
Тe
(С)
Тes
(С)
Комфортность P
(гПа)
Po
(гПа)
Тmin
(С)
Tmax
(С)
R
(мм)
R24
(мм)
S
(см)
03 16.05 Ю 3 н/о мгла 9/9
[]
+28.2 +15.5 46 +31 +33 душно 1005.3 999.0
06 16.05 Ю 4 11 км 9/9
[]
+31.8 +8.8 24 +31 +32 жарко 1003.4 999.7 +17.7
09 16.05 ЮЗ 4 14 км 9/9
[]
+32.3 +7.9 22 +31 +31 жарко 1001.8 995.7
12 16.05 Ю 2 12 км 9/9
[]
+28.4 +10.1 32 +29 +29 жарко 1003.1 999.4
15 16.05 Ю 2 11 км н/о +25.6 +11.4 41 +27 +27 жарко 1004.4 998.1
18 16.05 Ю 1 6000 м мгла ?/? +23.6 +16.1 63 +27 +27 жарко 1004.1 1000.4 +33.0
21 16.05 С 1 1500 м мгла н/о +19.9 +17.1 84 +24 +24 комфорт 1004.8 998.4
00 17.05 Ю 1 2100 м 9/9
[]
+22.7 +17.8 74 +28 +29 душно 1005.6 1001.9
03 17.05 Ю 3 2700 м мгла 9/9 1500 м
[]
+26.1 +18.0 61 +31 +32 очень
душно
1005.4 999.1
06 17.05 ЮЗ 4 4600 м мгла 9/9 1000 м
[]
+30.0 +17.5 47 +34 +35 очень
душно
1003.5 999.8 +19.7
09 17.05 З 3 н/о мгла 9/9 1500 м
[]
+29.2 +17.7 50 +34 +34 очень
душно
1002.0 995.8
12 17.05 В 7 1800 м слаб. град {дождь} 10/10 300 м
[]
+19.8 +17.2 85 +22 +22 комфорт 1005.0 1001.2 5
15 17.05 В 3 16 км в посл. час дождь н/о +18.9 +16.0 83 +20 +20 по сезону 1008.9 1002.4
18 17.05 СВ 2 8000 м ?/? +18.9 +16.1 84 +21 +21 комфорт 1009.2 1005.5 +30.5 7
21 17.05 В 1 3300 м мгла н/о +18.6 +16.6 88 +21 +21 комфорт 1008.3 1001.8
00 18.05 В 1 6000 м 10/10 1000 м
[]
+19.4 +16.4 83 +22 +22 комфорт 1009.5 1005.7 7
03 18.05 ЮВ 2 н/о мгла 10/10 1500 м
[]
+20.3 +16.1 77 +24 +24 комфорт 1010.1 1003.7
06 18.05 В 2 7000 м мгла 10/10 1500 м
[]
+21.8 +16.3 71 +26 +26 душно 1008.8 1005.0 +18.6
09 18.05 В 1 7000 м мгла 9/9 1000 м
[]
+23.2 +17.2 69 +28 +29 душно 1006.8 1000.4
12 18.05 В 2 14 км 9/9 1500 м
[]
+21.3 +15.4 69 +24 +24 комфорт 1007.3 1003.5
15 18.05 В 2 10 км н/о +18.7 +14.2 75 +20 +20 по сезону 1008.0 1001.5
18 18.05 ЮВ 3 8000 м н/о +17.9 +14.0 78 +18 +18 по сезону 1006.4 1002.6 +23.3
21 18.05 С 1 2700 м слаб. дождь н/о +16.7 +15.2 91 +18 +18 по сезону 1005.8 999.3
00 19.05 З 3 2800 м дымка 9/9 1000 м
[]
+18.0 +16.3 90 +18 +19 по сезону 1006.3 1002.5 15
03 19.05 З 4 8000 м {дождь} 9/9 1500 м
[]
+20.8 -2.3 21 +21 +22 комфорт 1007.0 1000.6
06 19.05 С 7 29 км {дождь} 9/9 1500 м
[]
+21.4 -1.2 22 +21 +21 комфорт 1008.0 1004.2 +16.4 0.1
09 19.05 З 7
{18}
30 км 1/1 1000 м
[]
+20.1 -4.2 19 +19 +21 холодно 1010.4 1003.9
12 19.05 СЗ 6
{18}
30 км 1/1 1000 м
[]
+17.0 -5.5 21 +16 +16 очень
холодно
1013.2 1009.4
15 19.05 СЗ 4 30 км н/о +16.1 -5.6 22 +16 +16 прохладно 1013.5 1006.9
18 19.05 З 4 21 км н/о +15.6 -6.6 21 +15 +15 прохладно 1012.1 1008.3 +23.7
21 19.05 СЗ 4 30 км н/о +16.3 -8.1 18 +16 +16 прохладно 1010.9 1004.4
00 20.05 С 6 30 км ясно +18.9 -6.7 17 +18 +21 по сезону 1011.4 1007.6
03 20.05 С 7 30 км 4/4 1500 м
[]
+21.8 -5.1 16 +21 +24 комфорт 1011.1 1004.7
06 20.05 С 4
{17}
30 км ясно +24.9 -5.4 13 +23 +34 комфорт 1008.8 1005.0 +15.6
09 20.05 СЗ 6 30 км ясно +26.1 -5.5 12 +23 +25 комфорт 1006.9 1000.6
12 20.05 ЮЗ 1 30 км ясно +21.0 -1.5 22 +22 +22 комфорт 1007.2 1003.4
15 20.05 З 1 15 км н/о +15.6 +3.7 45 +16 +16 прохладно 1007.9 1001.4
18 20.05 штиль 0 13 км н/о +12.6 +5.3 61 +12 +12 холодно 1007.6 1003.8 +26.3
21 20.05 Ю 1 12 км н/о +10.5 +5.3 70 +10 +10 очень
холодно
1007.0 1000.3
00 21.05 З 2 30 км ясно +22.6 -0.8 21 +22 +28 комфорт 1007.3 1003.5
03 21.05 З 3 30 км ясно +27.1 -3.7 13 +24 +40 комфорт 1006.0 999.7
06 21.05 С 4 30 км ясно +30.4 -3.3 11 +27 +38 жарко 1003.3 999.5 +10.2
09 21.05 ЮЗ 5 30 км ясно +29.4 +1.8 17 +27 +30 жарко 1001.6 995.4
12 21.05 З 1 26 км ясно +24.8 +5.1 28 +24 +24 комфорт 1002.8 999.1
15 21.05 штиль 0 9000 м н/о +17.9 +8.5 54 +18 +18 прохладно 1004.2 997.7
18 21.05 СЗ 1 10 км н/о +14.5 +9.3 71 +15 +15 прохладно 1003.4 999.7 +31.9
21 21.05 З 1 9000 м н/о +12.4 +8.9 79 +12 +12 холодно 1003.5 996.9
00 22.05 СВ 1 14 км 4/4
[]
+24.0 +4.9 29 +24 +28 комфорт 1004.0 1000.3
03 22.05 З 1 30 км 9/9
[]
+29.1 +3.1 19 +27 +29 жарко 1003.0 996.8
06 22.05 Ю 5 30 км 4/4 1000 м
[]
+33.2 +4.0 16 +31 +36 жарко 1000.4 996.7 +12.3
09 22.05 Ю 4 30 км 8/8
[]
+33.3 +5.0 17 +31 +32 жарко 998.4 992.3
12 22.05 В 2 23 км 9/9
[]
+27.7 +10.0 33 +28 +28 жарко 999.8 996.1
15 22.05 СВ 1 16 км н/о +24.2 +11.9 46 +26 +26 жарко 1001.6 995.3
18 22.05 С 1 12 км н/о +20.4 +10.8 54 +23 +23 комфорт 1002.3 998.6 +34.0
21 22.05 В 2 15 км н/о +17.3 +10.0 62 +18 +18 по сезону 1003.2 996.7
00 23.05 СВ 2 22 км 3/3
[]
+25.3 +9.2 36 +26 +31 жарко 1004.7 1001.0

 

Местоположение метеостанции Пекин (город Пекин, Китай): широта 39.93 долгота 116.28 высота над уровнем моря 55 м.

В архиве по умолчанию представлена погода в Пекине за последнюю неделю. Архивные данные за месяц целиком и за предыдущие месяцы, начиная с января 2011 года, Вы можете получить, выбрав интересующий диапазон дат из раскрывающегося списка и нажав кнопку "Ввод!".


*Определитесь, кто Вы:
робот инопланетянин человек

Внимание! Время в таблицах - всемирное. Для получения местного времени необходимо прибавить поправку, которая равна 8 ч.

Смотрите также архив погоды в соседних городах и на ближайших метеорологических станциях:

Погода в Хуайлае (Хэбэй, Китай) (84 км)
Погода в Тяньцзине (город Тяньцзинь, Китай) (119 км)
Погода в Баодине (Хэбэй, Китай) (135 км)
Погода в Фэннине (Хэбэй, Китай) (146 км)
Погода в Юйсяне (Шаньси, Китай) (147 км)
Погода в Чжанцзякоу (Хэбэй, Китай) (152 км)
Погода в Таншане (Хэбэй, Китай) (162 км)
Погода в Чэндэ (Хэбэй, Китай) (183 км)
Погода в Баотоу (Внутренняя Монголия, Китай) (207 км)
Погода в Лаотине (Хэбэй, Китай) (231 км)

Пояснения к столбцам:

Ветер - указаны скорость ветра в м/с - средняя за 10 мин, порывы в срок и между сроками (в фигурных скобках) и направление, откуда дует ветер: С - северный, СВ - северо-восточный, В - восточный, ЮВ - юго-восточный, Ю - южный, ЮЗ - юго-западный, З - западный, СЗ - северо-западный.
Видимость - горизонтальная дальность видимости в метрах или километрах. При видимости от 1 до 10 км при отсутствии осадков обычно наблюдается дымка, при ухудшении видимости до 1 км и менее - туман. В сухую погоду видимость может ухудшаться дымом, пылью или мглою.
Явления - указаны атмосферные явления, наблюдавшиеся в срок или в последний час перед сроком; фигурными скобками обозначены явления, наблюдавшиеся между сроками (за 1-3 часа до срока); квадратными скобками обозначены град или гололедные отложения с указанием их диаметра в мм.
Облачность - указаны через наклонную черту общая и нижняя облачность в баллах и высота нижней границы облаков в метрах; квадратными скобками обозначены формы облаков: Ci - перистые, Cs - перисто-слоистые, Cc - перисто-кучевые, Ac - высококучевые, As - высокослоистые, Sc - слоисто-кучевые, Ns - слоисто-дождевые, Cu - кучевые, Cb - кучево-дождевые. Подробнее классификацию облаков см. в Атласе облаков (PDF).
T - Температура воздуха - температура, измеренная на высоте 2 м над землей.
Td - Температура точки росы - температура, при понижении до которой содержащийся в воздухе водяной пар достигнет насыщения.
f - Относительная влажность воздуха - влажноcть воздуха, измеренная на высоте 2 м над землей.
Te - Эффективная температура - температура, которую ощущает одетый по сезону человек в тени. Характеристика душности погоды. При расчете учитывается влияние влажности воздуха и скорости ветра на теплоощущения человека.
Tes - Эффективная температура на солнце - температура, которую ощущает человек, с поправкой на солнечный нагрев. Характеристика знойности погоды. Зависит от высоты солнца над горизонтом, облачности и скорости ветра. Ночью, в пасмурную погоду, а также при ветре 12 м/с и более поправка равна нулю.
P - Атмосферное давление - приведенное к уровню моря атмосферное давление.
Po - Атмосферное давление - измеренное на уровне метеостанции атмосферное давление.
Tmin - Минимальная температура - минимум температуры воздуха на высоте 2 м над землей.
Tmax - Максимальная температура - максимум температуры воздуха на высоте 2 м над землей.
R - Количество осадков - Количество выпавших осадков за период времени, мм. При наведении курсора мыши на число - период времени, за который выпало указанное количество осадков.
R24 - Количество осадков - Количество выпавших осадков за 24 часа, мм.
S - Снежный покров - Высота снежного покрова, см. При наведении курсора мыши на число - состояние снежного покрова и степень покрытия местности в баллах.